DW1437 Weather Reports


time (UTC)temp
F
wind
direction
speed
knots
gust
knots
rain 1hr
in
rain 24hr
in
rain mn
in
humidity
%
barometer
mb
20260507122946 58 90 0.0 3.5 0.00 0.00 0.00 67 1014.7
20260507121921 57 84 0.0 0.0 0.00 0.00 0.00 69 1014.7
20260507115832 57 84 0.0 2.6 0.00 0.00 0.00 68 1014.9
20260507113707 57 161 0.9 6.1 0.00 0.00 0.00 69 1015.0
20260507111532 58 90 0.9 4.3 0.00 0.00 0.00 74 1015.1
20260507110529 56 50 0.9 4.3 0.00 0.00 0.00 73 1015.2
20260507105536 56 213 0.0 2.6 0.00 0.00 0.00 74 1015.4
20260507104515 55 229 0.0 0.0 0.00 0.00 0.00 76 1015.4
20260507103519 55 98 0.0 0.0 0.00 0.00 0.00 79 1015.5
20260507102503 55 49 0.0 0.0 0.00 0.00 0.00 83 1015.5
20260507101517 53 10 0.0 0.0 0.00 0.00 0.00 84 1015.7
20260507095344 51 78 0.0 0.0 0.00 0.00 0.00 86 1015.6
20260507094316 50 80 0.0 0.0 0.00 0.00 0.00 86 1015.7
20260507093316 49 133 0.0 0.0 0.00 0.00 0.00 87 1015.6
20260507091137 48 146 0.0 0.0 0.00 0.00 0.00 89 1015.6
20260507090120 48 63 0.0 0.0 0.00 0.00 0.00 89 1015.6
20260507085138 47 63 0.0 0.0 0.00 0.00 0.00 90 1015.7
20260507084149 47 63 0.0 0.0 0.00 0.00 0.00 90 1015.7
20260507075806 46 63 0.0 0.0 0.00 0.00 0.00 91 1015.7
20260507074810 45 63 0.0 0.0 0.00 0.00 0.00 91 1015.7
20260507073747 45 63 0.0 0.0 0.00 0.00 0.00 91 1015.7
20260507072743 45 63 0.0 0.0 0.00 0.00 0.00 91 1015.6
20260507071759 45 63 0.0 0.0 0.00 0.00 0.00 91 1015.6
20260507065543 44 63 0.0 0.0 0.00 0.00 0.00 91 1015.3
20260507064542 44 63 0.0 0.0 0.00 0.00 0.00 91 1015.4
20260507063532 44 63 0.0 0.0 0.00 0.00 0.00 92 1015.3
20260507062533 44 63 0.0 0.0 0.00 0.00 0.00 92 1015.3
20260507061554 44 63 0.0 0.0 0.00 0.00 0.00 92 1015.3
20260507060548 44 63 0.0 0.0 0.00 0.00 0.00 91 1015.3
20260507055603 43 63 0.0 0.0 0.00 0.00 0.00 91 1015.3
20260507054621 43 63 0.0 0.0 0.00 0.00 0.00 91 1015.3
20260507053606 43 63 0.0 0.0 0.00 0.00 0.00 91 1015.2
20260507052621 43 63 0.0 0.0 0.00 0.00 0.00 91 1015.2
20260507051629 43 63 0.0 0.0 0.00 0.00 0.00 91 1015.1
20260507050642 43 63 0.0 0.0 0.00 0.00 0.00 91 1015.2
20260507045641 43 63 0.0 0.0 0.00 0.00 0.00 91 1015.1
20260507044648 43 63 0.0 0.0 0.00 0.00 0.00 90 1015.1
20260507043629 43 63 0.0 0.0 0.00 0.00 0.00 90 1015.0
20260507042619 43 63 0.0 0.0 0.00 0.00 0.00 90 1015.0
20260507041604 43 63 0.0 0.0 0.00 0.00 0.00 90 1014.9
20260507035433 43 63 0.0 0.0 0.00 0.00 0.00 90 1014.8
20260507033258 43 63 0.0 0.0 0.00 0.00 0.00 89 1014.9
20260507032300 43 63 0.0 0.0 0.00 0.00 0.00 89 1015.1
20260507031309 44 63 0.0 0.0 0.00 0.00 0.00 89 1015.1
20260507030326 43 63 0.0 0.0 0.00 0.00 0.00 89 1015.2
20260507025345 44 63 0.0 0.0 0.00 0.00 0.00 88 1015.0
20260507024328 44 63 0.0 0.0 0.00 0.00 0.00 89 1015.0
20260507022216 44 63 0.0 0.0 0.00 0.00 0.00 88 1015.0
20260507021200 44 63 0.0 0.0 0.00 0.00 0.00 88 1015.0
20260507020216 44 63 0.0 0.0 0.00 0.00 0.00 88 1015.0
20260507015154 44 63 0.0 0.0 0.00 0.00 0.00 88 1015.0
20260507014204 44 63 0.0 0.0 0.00 0.00 0.00 87 1015.1
20260507012033 44 63 0.0 0.0 0.00 0.00 0.00 87 1015.2
20260507005948 45 63 0.0 0.0 0.00 0.00 0.00 86 1015.1
20260507004926 45 63 0.0 0.0 0.00 0.00 0.00 86 1015.0
20260507002759 45 63 0.0 0.0 0.00 0.00 0.00 85 1015.2
20260507001730 45 63 0.0 0.0 0.00 0.00 0.00 85 1015.3
20260507000720 45 63 0.0 0.0 0.00 0.00 0.00 84 1015.2
20260506235654 46 63 0.0 0.0 0.00 0.00 0.00 85 1015.2
20260506234638 46 63 0.0 0.9 0.00 0.00 0.00 84 1015.1
20260506233630 46 60 0.0 1.7 0.00 0.00 0.00 84 1015.2
20260506232606 46 113 0.0 0.9 0.00 0.00 0.00 84 1015.2
20260506231549 46 66 0.0 0.0 0.00 0.00 0.00 84 1015.0
20260506225447 46 76 0.9 2.6 0.00 0.00 0.00 83 1014.9
20260506223331 47 72 0.9 1.7 0.00 0.00 0.00 82 1014.8
20260506222321 47 72 0.9 2.6 0.00 0.00 0.00 82 1014.9
20260506221306 47 68 0.9 2.6 0.00 0.00 0.00 81 1014.8
20260506220253 47 71 0.9 1.7 0.00 0.00 0.00 81 1014.8
20260506215306 47 67 0.9 2.6 0.00 0.00 0.00 81 1014.8
20260506213134 47 59 0.0 1.7 0.00 0.00 0.00 81 1014.6
20260506212110 46 37 0.0 0.0 0.00 0.00 0.00 80 1014.6
20260506211110 46 37 0.0 0.0 0.00 0.00 0.00 79 1014.6
20260506210109 47 37 0.0 0.0 0.00 0.00 0.00 78 1014.5
20260506205036 47 37 0.0 0.0 0.00 0.00 0.00 77 1014.5
20260506204054 47 36 0.0 0.0 0.00 0.00 0.00 76 1014.4
20260506203109 48 36 0.0 0.0 0.00 0.00 0.00 75 1014.4
20260506202133 48 36 0.0 0.0 0.00 0.00 0.00 74 1014.3
20260506201101 48 36 0.0 0.0 0.00 0.00 0.00 73 1014.2
20260506200110 49 36 0.0 0.0 0.00 0.00 0.00 73 1014.1
20260506193937 49 36 0.0 0.0 0.00 0.00 0.00 71 1013.8
20260506192929 50 36 0.0 0.0 0.00 0.00 0.00 70 1013.8
20260506191943 51 36 0.0 0.0 0.00 0.00 0.00 68 1013.7
20260506185731 52 36 0.0 0.0 0.00 0.00 0.00 66 1013.6
20260506184746 53 36 0.0 0.0 0.00 0.00 0.00 65 1013.6
20260506183724 54 36 0.0 0.9 0.00 0.00 0.00 62 1013.6
20260506182659 54 36 0.0 0.9 0.00 0.00 0.00 63 1013.6
20260506181702 55 36 0.0 0.9 0.00 0.00 0.00 60 1013.6
20260506180637 55 36 0.0 2.6 0.00 0.00 0.00 59 1013.5
20260506175630 56 36 0.9 2.6 0.00 0.00 0.00 56 1013.4
20260506174641 56 60 0.0 0.9 0.00 0.00 0.00 58 1013.3
20260506173638 56 60 0.0 0.9 0.00 0.00 0.00 58 1013.3
20260506172639 56 60 0.0 0.0 0.00 0.00 0.00 57 1013.4
20260506171629 56 59 0.0 1.7 0.00 0.00 0.00 55 1013.3
20260506170633 56 34 0.0 0.0 0.00 0.00 0.00 59 1013.3
20260506163414 56 51 0.9 5.2 0.00 0.00 0.00 59 1013.2
20260506162355 56 48 0.9 5.2 0.00 0.00 0.00 56 1013.3
20260506161327 56 331 0.0 3.5 0.00 0.00 0.00 59 1013.3
20260506160350 56 40 0.9 2.6 0.00 0.00 0.00 58 1013.3
20260506155408 57 43 0.0 2.6 0.00 0.00 0.00 57 1013.3
20260506154407 57 116 0.0 0.0 0.00 0.00 0.00 56 1013.3
20260506153401 57 26 0.0 2.6 0.00 0.00 0.00 56 1013.3
20260506152422 57 52 0.0 7.8 0.00 0.00 0.00 56 1013.4
20260506151438 58 31 0.0 3.5 0.00 0.00 0.00 55 1013.5
20260506150427 57 344 0.0 1.7 0.00 0.00 0.00 58 1013.4
20260506144318 57 32 0.0 7.8 0.00 0.00 0.00 58 1013.6
20260506143313 57 45 0.0 0.9 0.00 0.00 0.00 60 1013.6
20260506142241 57 44 0.9 7.0 0.00 0.00 0.00 57 1013.6
20260506141237 57 44 0.9 7.0 0.00 0.00 0.00 61 1013.7
20260506135059 58 59 0.0 5.2 0.00 0.00 0.00 58 1013.8
20260506132943 56 15 0.0 0.0 0.00 0.00 0.00 61 1014.0
20260506131927 57 46 0.9 5.2 0.00 0.00 0.00 60 1014.0
20260506125802 56 26 0.9 5.2 0.00 0.00 0.00 62 1014.1
20260506124736 56 32 0.0 2.6 0.00 0.00 0.00 63 1014.2
20260506123757 56 336 0.9 0.9 0.00 0.00 0.00 64 1014.1